TimeCDT,TemperatureF,Dew PointF,Humidity,Sea Level PressureIn,VisibilityMPH,Wind Direction,Wind SpeedMPH,Gust SpeedMPH,PrecipitationIn,Events,Conditions,WindDirDegrees,DateUTC
12:15 AM,73.4,64.4,73,29.84,10.0,SSE,9.2,-,N/A,,Clear,150,2013-05-20 05:15:00
12:35 AM,73.4,68.0,83,29.84,10.0,SSE,10.4,-,N/A,,Clear,150,2013-05-20 05:35:00
12:55 AM,73.4,68.0,83,29.84,10.0,South,10.4,17.3,N/A,,Clear,170,2013-05-20 05:55:00
1:15 AM,73.4,68.0,83,29.84,7.0,South,10.4,18.4,N/A,,Clear,170,2013-05-20 06:15:00
1:35 AM,73.4,68.0,83,29.83,7.0,South,10.4,-,N/A,,Clear,170,2013-05-20 06:35:00
1:55 AM,73.4,68.0,83,29.83,7.0,South,10.4,-,N/A,,Clear,180,2013-05-20 06:55:00
2:15 AM,73.4,68.0,83,29.83,7.0,South,11.5,-,N/A,,Clear,180,2013-05-20 07:15:00
2:35 AM,73.4,68.0,83,29.83,7.0,South,10.4,-,N/A,,Clear,180,2013-05-20 07:35:00
2:55 AM,71.6,68.0,88,29.82,7.0,South,10.4,-,N/A,,Clear,180,2013-05-20 07:55:00
3:15 AM,71.6,68.0,88,29.82,7.0,SSE,8.1,-,N/A,,Clear,160,2013-05-20 08:15:00
3:35 AM,71.6,68.0,88,29.81,7.0,SSE,9.2,-,N/A,,Clear,160,2013-05-20 08:35:00
3:55 AM,71.6,68.0,88,29.81,7.0,South,10.4,-,N/A,,Clear,170,2013-05-20 08:55:00
4:15 AM,71.6,68.0,88,29.81,10.0,South,11.5,-,N/A,,Clear,180,2013-05-20 09:15:00
4:35 AM,71.6,66.2,83,29.83,10.0,SSW,13.8,-,N/A,,Clear,200,2013-05-20 09:35:00
4:55 AM,71.6,66.2,83,29.83,10.0,South,11.5,-,N/A,,Clear,190,2013-05-20 09:55:00
5:15 AM,71.6,66.2,83,29.84,10.0,South,10.4,-,N/A,,Clear,190,2013-05-20 10:15:00
5:35 AM,71.6,66.2,83,29.85,10.0,South,11.5,-,N/A,,Clear,180,2013-05-20 10:35:00
5:55 AM,71.6,68.0,88,29.85,10.0,South,11.5,-,N/A,,Clear,180,2013-05-20 10:55:00
6:15 AM,71.6,68.0,88,29.86,10.0,South,12.7,-,N/A,,Scattered Clouds,180,2013-05-20 11:15:00
6:35 AM,71.6,68.0,88,29.86,10.0,South,12.7,-,N/A,,Overcast,190,2013-05-20 11:35:00
6:55 AM,73.4,68.0,83,29.87,10.0,South,12.7,17.3,N/A,,Mostly Cloudy,190,2013-05-20 11:55:00
7:15 AM,73.4,68.0,83,29.87,10.0,SSW,11.5,19.6,N/A,,Mostly Cloudy,200,2013-05-20 12:15:00
7:35 AM,73.4,68.0,83,29.86,10.0,SSW,17.3,-,N/A,,Mostly Cloudy,200,2013-05-20 12:35:00
7:55 AM,75.2,68.0,78,29.87,10.0,SSW,15.0,24.2,N/A,,Scattered Clouds,210,2013-05-20 12:55:00
8:15 AM,75.2,66.2,73,29.87,10.0,SW,16.1,24.2,N/A,,Mostly Cloudy,220,2013-05-20 13:15:00
8:35 AM,75.2,66.2,73,29.87,10.0,SSW,12.7,-,N/A,,Mostly Cloudy,210,2013-05-20 13:35:00
8:55 AM,77.0,66.2,69,29.86,10.0,SW,9.2,-,N/A,,Scattered Clouds,220,2013-05-20 13:55:00
9:15 AM,77.0,64.4,65,29.86,10.0,South,11.5,-,N/A,,Clear,190,2013-05-20 14:15:00
9:35 AM,77.0,62.6,61,29.88,10.0,South,11.5,-,N/A,,Clear,190,2013-05-20 14:35:00
9:55 AM,77.0,59.0,54,29.88,10.0,SSW,11.5,-,N/A,,Clear,200,2013-05-20 14:55:00
10:15 AM,78.8,57.2,47,29.87,10.0,South,10.4,-,N/A,,Clear,180,2013-05-20 15:15:00
10:35 AM,78.8,55.4,44,29.86,10.0,South,10.4,-,N/A,,Scattered Clouds,170,2013-05-20 15:35:00
10:55 AM,80.6,53.6,39,29.86,10.0,South,12.7,-,N/A,,Clear,170,2013-05-20 15:55:00
11:15 AM,78.8,53.6,42,29.86,10.0,SSE,18.4,-,N/A,,Clear,160,2013-05-20 16:15:00
11:35 AM,80.6,55.4,42,29.84,10.0,South,16.1,23.0,N/A,,Clear,170,2013-05-20 16:35:00
11:55 AM,80.6,57.2,45,29.83,10.0,SSE,16.1,-,N/A,,Clear,160,2013-05-20 16:55:00
12:15 PM,80.6,59.0,48,29.82,10.0,SSE,16.1,-,N/A,,Clear,160,2013-05-20 17:15:00
12:35 PM,80.6,59.0,48,29.83,10.0,South,18.4,23.0,N/A,,Clear,170,2013-05-20 17:35:00
12:55 PM,80.6,59.0,48,29.83,10.0,South,19.6,25.3,N/A,,Clear,170,2013-05-20 17:55:00
1:35 PM,86.0,55.4,35,29.83,10.0,South,23.0,29.9,N/A,,Clear,180,2013-05-20 18:35:00
1:55 PM,86.0,55.4,35,29.83,10.0,SSW,20.7,28.8,N/A,,Clear,200,2013-05-20 18:55:00
2:15 PM,86.0,60.8,43,29.83,10.0,SSW,21.9,29.9,N/A,,Scattered Clouds,200,2013-05-20 19:15:00
2:35 PM,84.2,60.8,45,29.84,10.0,South,19.6,24.2,N/A,,Scattered Clouds,180,2013-05-20 19:35:00
2:55 PM,86.0,62.6,45,29.84,10.0,South,21.9,28.8,N/A,,Scattered Clouds,180,2013-05-20 19:55:00
3:15 PM,86.0,59.0,40,29.84,10.0,SSW,18.4,26.5,N/A,,Scattered Clouds,210,2013-05-20 20:15:00
3:35 PM,87.8,59.0,38,29.83,10.0,SSW,18.4,26.5,N/A,,Mostly Cloudy,200,2013-05-20 20:35:00
3:55 PM,86.0,59.0,40,29.83,10.0,SSW,19.6,24.2,N/A,,Mostly Cloudy,210,2013-05-20 20:55:00
4:15 PM,86.0,59.0,40,29.82,10.0,South,20.7,26.5,N/A,,Mostly Cloudy,190,2013-05-20 21:15:00
4:35 PM,84.2,62.6,48,29.81,10.0,SSW,13.8,26.5,N/A,Rain,Light Rain,210,2013-05-20 21:35:00
4:55 PM,86.0,60.8,43,29.81,10.0,SSW,16.1,26.5,N/A,,Scattered Clouds,210,2013-05-20 21:55:00
5:15 PM,86.0,59.0,40,29.80,10.0,SSW,18.4,25.3,N/A,,Scattered Clouds,200,2013-05-20 22:15:00
5:35 PM,84.2,59.0,42,29.79,10.0,South,19.6,26.5,N/A,,Clear,190,2013-05-20 22:35:00
5:55 PM,82.4,62.6,51,29.78,10.0,South,15.0,-,N/A,,Mostly Cloudy,180,2013-05-20 22:55:00
6:15 PM,82.4,62.6,51,29.78,10.0,South,21.9,26.5,N/A,,Scattered Clouds,180,2013-05-20 23:15:00
6:35 PM,82.4,62.6,51,29.79,10.0,South,19.6,25.3,N/A,,Scattered Clouds,190,2013-05-20 23:35:00
6:55 PM,82.4,62.6,51,29.79,10.0,South,18.4,27.6,N/A,,Scattered Clouds,180,2013-05-20 23:55:00
7:15 PM,80.6,60.8,51,29.78,10.0,South,17.3,23.0,N/A,,Clear,190,2013-05-21 00:15:00
7:35 PM,80.6,62.6,54,29.79,10.0,South,15.0,20.7,N/A,,Clear,190,2013-05-21 00:35:00
7:55 PM,78.8,62.6,57,29.78,10.0,South,13.8,-,N/A,,Clear,180,2013-05-21 00:55:00
8:15 PM,77.0,62.6,61,29.78,10.0,South,12.7,-,N/A,,Clear,190,2013-05-21 01:15:00
8:35 PM,77.0,62.6,61,29.78,10.0,South,15.0,19.6,N/A,,Clear,190,2013-05-21 01:35:00
8:55 PM,77.0,62.6,61,29.80,10.0,South,10.4,-,N/A,,Clear,180,2013-05-21 01:55:00
9:15 PM,75.2,62.6,65,29.81,10.0,South,8.1,-,N/A,,Clear,170,2013-05-21 02:15:00
9:35 PM,73.4,62.6,69,29.80,10.0,SSE,9.2,-,N/A,,Scattered Clouds,160,2013-05-21 02:35:00
9:55 PM,73.4,62.6,69,29.80,10.0,SSE,9.2,-,N/A,,Clear,150,2013-05-21 02:55:00
10:15 PM,73.4,64.4,73,29.80,10.0,SSE,9.2,-,N/A,,Scattered Clouds,150,2013-05-21 03:15:00
10:35 PM,73.4,64.4,73,29.78,10.0,SSE,9.2,-,N/A,,Clear,150,2013-05-21 03:35:00
10:55 PM,73.4,66.2,78,29.78,10.0,SSE,10.4,-,N/A,,Scattered Clouds,150,2013-05-21 03:55:00
11:15 PM,73.4,66.2,78,29.78,10.0,SSE,11.5,17.3,N/A,,Mostly Cloudy,150,2013-05-21 04:15:00
11:35 PM,75.2,66.2,73,29.78,10.0,SSE,10.4,-,N/A,,Mostly Cloudy,150,2013-05-21 04:35:00
11:55 PM,73.4,66.2,78,29.78,10.0,SSE,13.8,18.4,N/A,,Mostly Cloudy,160,2013-05-21 04:55:00